| time (UTC) | temp F | wind direction | speed knots | gust knots | rain 1hr in | rain 24hr in | rain mn in | humidity % | barometer mb |
| 20260502123039 | 78 | 301 | 1.7 | 4.3 | 0.00 | 0.00 | 0.00 | 32 | 1017.4 |
| 20260502122030 | 77 | 298 | 1.7 | 3.5 | 0.00 | 0.00 | 0.00 | 32 | 1017.5 |
| 20260502121022 | 77 | 326 | 1.7 | 4.3 | 0.00 | 0.00 | 0.00 | 33 | 1017.7 |
| 20260502115034 | 77 | 224 | 2.6 | 3.5 | 0.00 | 0.00 | 0.00 | 34 | 1017.9 |
| 20260502114026 | 77 | 318 | 1.7 | 5.2 | 0.00 | 0.00 | 0.00 | 34 | 1018.1 |
| 20260502113017 | 77 | 316 | 1.7 | 4.3 | 0.00 | 0.00 | 0.00 | 33 | 1018.3 |
| 20260502112039 | 75 | 317 | 0.9 | 3.5 | 0.00 | 0.00 | 0.00 | 34 | 1018.5 |
| 20260502111110 | 74 | 340 | 0.9 | 1.7 | 0.00 | 0.00 | 0.00 | 36 | 1018.4 |
| 20260502110021 | 75 | 341 | 1.7 | 4.3 | 0.00 | 0.00 | 0.00 | 36 | 1018.6 |
| 20260502105043 | 75 | 273 | 0.9 | 2.6 | 0.00 | 0.00 | 0.00 | 35 | 1018.7 |
| 20260502104055 | 75 | 323 | 1.7 | 3.5 | 0.00 | 0.00 | 0.00 | 35 | 1018.8 |
| 20260502103026 | 72 | 147 | 0.9 | 1.7 | 0.00 | 0.00 | 0.00 | 36 | 1019.1 |
| 20260502102017 | 73 | 331 | 1.7 | 5.2 | 0.00 | 0.00 | 0.00 | 35 | 1019.2 |
| 20260502101039 | 72 | 339 | 0.9 | 2.6 | 0.00 | 0.00 | 0.00 | 35 | 1019.4 |
| 20260502091018 | 68 | 17 | 0.0 | 0.9 | 0.00 | 0.00 | 0.00 | 40 | 1020.1 |
| 20260502071036 | 59 | 352 | 0.9 | 1.7 | 0.00 | 0.00 | 0.00 | 51 | 1020.6 |
| 20260502070028 | 59 | 355 | 0.9 | 1.7 | 0.00 | 0.00 | 0.00 | 51 | 1020.8 |
| 20260502065019 | 58 | 22 | 0.0 | 0.9 | 0.00 | 0.00 | 0.00 | 54 | 1020.8 |
| 20260502064041 | 58 | 312 | 0.0 | 0.9 | 0.00 | 0.00 | 0.00 | 54 | 1020.8 |
| 20260502063052 | 59 | 12 | 0.0 | 1.7 | 0.00 | 0.00 | 0.00 | 51 | 1020.8 |
| 20260502062044 | 58 | 0.0 | 0.9 | 0.00 | 0.00 | 0.00 | 53 | 1020.8 | |
| 20260502061046 | 56 | 0.0 | 0.9 | 0.00 | 0.00 | 0.00 | 57 | 1020.8 | |
| 20260502060037 | 53 | 256 | 0.0 | 0.9 | 0.00 | 0.00 | 0.00 | 64 | 1020.8 |
| 20260502054902 | 52 | 0.0 | 2.6 | 0.00 | 0.00 | 0.00 | 66 | 1020.7 | |
| 20260502054544 | 52 | 319 | 0.9 | 2.6 | 0.00 | 0.00 | 0.00 | 68 | 1020.8 |
| 20260502053535 | 50 | 79 | 0.9 | 2.6 | 0.00 | 0.00 | 0.00 | 71 | 1020.5 |
| 20260502052527 | 49 | 109 | 0.9 | 3.5 | 0.00 | 0.00 | 0.00 | 71 | 1020.7 |
| 20260502051519 | 49 | 0.0 | 0.9 | 0.00 | 0.00 | 0.00 | 72 | 1020.6 | |
| 20260502050540 | 47 | 132 | 0.9 | 3.5 | 0.00 | 0.00 | 0.00 | 74 | 1020.5 |
| 20260502045543 | 47 | 209 | 0.0 | 2.6 | 0.00 | 0.00 | 0.00 | 75 | 1020.4 |
| 20260502044555 | 47 | 243 | 0.9 | 2.6 | 0.00 | 0.00 | 0.00 | 75 | 1020.4 |
| 20260502043601 | 47 | 194 | 1.7 | 4.3 | 0.00 | 0.00 | 0.00 | 75 | 1020.4 |
| 20260502042603 | 47 | 306 | 1.7 | 4.3 | 0.00 | 0.00 | 0.00 | 74 | 1020.2 |
| 20260502041534 | 47 | 190 | 0.9 | 2.6 | 0.00 | 0.00 | 0.00 | 74 | 1020.4 |
| 20260502040526 | 46 | 185 | 2.6 | 4.3 | 0.00 | 0.00 | 0.00 | 73 | 1020.3 |
| 20260502035517 | 47 | 231 | 1.7 | 3.5 | 0.00 | 0.00 | 0.00 | 72 | 1020.3 |
| 20260502034539 | 48 | 347 | 2.6 | 4.3 | 0.00 | 0.00 | 0.00 | 71 | 1020.3 |
| 20260502033531 | 48 | 200 | 1.7 | 4.3 | 0.00 | 0.00 | 0.00 | 71 | 1020.3 |
| 20260502032543 | 48 | 186 | 2.6 | 4.3 | 0.00 | 0.00 | 0.00 | 71 | 1020.3 |
| 20260502031625 | 48 | 211 | 0.9 | 3.5 | 0.00 | 0.00 | 0.00 | 69 | 1020.3 |
| 20260502030537 | 49 | 245 | 1.7 | 4.3 | 0.00 | 0.00 | 0.00 | 68 | 1020.2 |
| 20260502025528 | 49 | 314 | 1.7 | 5.2 | 0.00 | 0.00 | 0.00 | 67 | 1020.2 |
| 20260502024520 | 49 | 214 | 1.7 | 3.5 | 0.00 | 0.00 | 0.00 | 68 | 1020.3 |
| 20260502023543 | 48 | 187 | 1.7 | 6.1 | 0.00 | 0.00 | 0.00 | 68 | 1020.2 |
| 20260502022535 | 49 | 207 | 1.7 | 4.3 | 0.00 | 0.00 | 0.00 | 67 | 1020.2 |
| 20260502021606 | 50 | 189 | 2.6 | 4.3 | 0.00 | 0.00 | 0.00 | 65 | 1020.3 |
| 20260502020517 | 50 | 164 | 0.9 | 3.5 | 0.00 | 0.00 | 0.00 | 63 | 1020.5 |
| 20260502015600 | 50 | 219 | 0.9 | 3.5 | 0.00 | 0.00 | 0.00 | 62 | 1020.5 |
| 20260502014531 | 51 | 324 | 2.6 | 4.3 | 0.00 | 0.00 | 0.00 | 61 | 1020.4 |
| 20260502013523 | 52 | 282 | 0.9 | 4.3 | 0.00 | 0.00 | 0.00 | 59 | 1020.5 |
| 20260502012546 | 51 | 214 | 0.0 | 1.7 | 0.00 | 0.00 | 0.00 | 59 | 1020.6 |
| 20260502011537 | 51 | 38 | 0.0 | 0.9 | 0.00 | 0.00 | 0.00 | 60 | 1020.8 |
| 20260502010528 | 52 | 147 | 0.0 | 1.7 | 0.00 | 0.00 | 0.00 | 59 | 1020.6 |
| 20260502005521 | 52 | 191 | 0.0 | 1.7 | 0.00 | 0.00 | 0.00 | 58 | 1020.6 |
| 20260502004543 | 52 | 0.0 | 0.9 | 0.00 | 0.00 | 0.00 | 59 | 1020.5 | |
| 20260502003534 | 52 | 281 | 0.0 | 0.9 | 0.00 | 0.00 | 0.00 | 59 | 1020.4 |
| 20260502002525 | 53 | 8 | 0.0 | 1.7 | 0.00 | 0.00 | 0.00 | 57 | 1020.3 |
| 20260502001637 | 53 | 128 | 0.0 | 0.9 | 0.00 | 0.00 | 0.00 | 58 | 1020.4 |
| 20260502000539 | 54 | 34 | 0.0 | 1.7 | 0.00 | 0.00 | 0.00 | 55 | 1020.4 |
| 20260501235530 | 54 | 111 | 0.0 | 1.7 | 0.00 | 0.00 | 0.00 | 54 | 1020.5 |
| 20260501234602 | 55 | 101 | 0.9 | 2.6 | 0.00 | 0.00 | 0.00 | 54 | 1020.5 |
| 20260501233543 | 56 | 352 | 0.0 | 1.7 | 0.00 | 0.00 | 0.00 | 52 | 1020.5 |
| 20260501232535 | 56 | 346 | 0.0 | 1.7 | 0.00 | 0.00 | 0.00 | 52 | 1020.5 |
| 20260501231527 | 56 | 350 | 0.0 | 1.7 | 0.00 | 0.00 | 0.00 | 51 | 1020.4 |
| 20260501230518 | 59 | 10 | 0.9 | 2.6 | 0.00 | 0.00 | 0.00 | 47 | 1020.5 |
| 20260501225540 | 58 | 185 | 0.9 | 1.7 | 0.00 | 0.00 | 0.00 | 46 | 1020.6 |
| 20260501224532 | 59 | 308 | 0.0 | 0.9 | 0.00 | 0.00 | 0.00 | 46 | 1020.7 |
| 20260501223524 | 57 | 148 | 0.9 | 1.7 | 0.00 | 0.00 | 0.00 | 49 | 1020.6 |
| 20260501222545 | 58 | 125 | 0.9 | 2.6 | 0.00 | 0.00 | 0.00 | 49 | 1020.6 |
| 20260501221537 | 59 | 309 | 0.9 | 2.6 | 0.00 | 0.00 | 0.00 | 46 | 1020.6 |
| 20260501220548 | 59 | 17 | 0.9 | 1.7 | 0.00 | 0.00 | 0.00 | 45 | 1020.5 |
| 20260501215520 | 61 | 70 | 0.9 | 2.6 | 0.00 | 0.00 | 0.00 | 43 | 1020.4 |
| 20260501214542 | 68 | 43 | 1.7 | 3.5 | 0.00 | 0.00 | 0.00 | 32 | 1020.3 |
| 20260501213534 | 70 | 138 | 2.6 | 7.8 | 0.00 | 0.00 | 0.00 | 27 | 1020.3 |
| 20260501212525 | 70 | 140 | 3.5 | 9.6 | 0.00 | 0.00 | 0.00 | 27 | 1020.4 |
| 20260501211537 | 70 | 147 | 3.5 | 9.6 | 0.00 | 0.00 | 0.00 | 27 | 1020.3 |
| 20260501210539 | 69 | 144 | 2.6 | 7.0 | 0.00 | 0.00 | 0.00 | 28 | 1020.3 |
| 20260501205611 | 66 | 143 | 2.6 | 6.1 | 0.00 | 0.00 | 0.00 | 31 | 1020.3 |
| 20260501204521 | 62 | 59 | 0.9 | 1.7 | 0.00 | 0.00 | 0.00 | 40 | 1020.3 |
| 20260501203604 | 63 | 17 | 0.9 | 1.7 | 0.00 | 0.00 | 0.00 | 38 | 1020.4 |
| 20260501202534 | 64 | 225 | 0.9 | 1.7 | 0.00 | 0.00 | 0.00 | 36 | 1020.4 |
| 20260501201526 | 65 | 347 | 0.9 | 1.7 | 0.00 | 0.00 | 0.00 | 33 | 1020.4 |
| 20260501200518 | 65 | 0.0 | 0.0 | 0.00 | 0.00 | 0.00 | 33 | 1020.2 | |
| 20260501195539 | 65 | 332 | 0.0 | 1.7 | 0.00 | 0.00 | 0.00 | 34 | 1020.1 |
| 20260501194531 | 65 | 354 | 0.0 | 1.7 | 0.00 | 0.00 | 0.00 | 34 | 1020.1 |
| 20260501193522 | 66 | 196 | 0.9 | 1.7 | 0.00 | 0.00 | 0.00 | 35 | 1020.0 |
| 20260501192544 | 67 | 0.0 | 0.9 | 0.00 | 0.00 | 0.00 | 31 | 1020.0 | |
| 20260501191535 | 68 | 159 | 0.0 | 1.7 | 0.00 | 0.00 | 0.00 | 31 | 1019.9 |
| 20260501190525 | 69 | 323 | 0.0 | 0.9 | 0.00 | 0.00 | 0.00 | 30 | 1020.0 |
| 20260501185517 | 70 | 0.0 | 0.9 | 0.00 | 0.00 | 0.00 | 28 | 1019.8 | |
| 20260501184538 | 71 | 0.0 | 0.9 | 0.00 | 0.00 | 0.00 | 28 | 1019.8 | |
| 20260501183549 | 72 | 200 | 0.0 | 0.9 | 0.00 | 0.00 | 0.00 | 27 | 1019.7 |
| 20260501182520 | 73 | 155 | 0.0 | 0.9 | 0.00 | 0.00 | 0.00 | 26 | 1019.5 |
| 20260501181541 | 74 | 170 | 0.0 | 1.7 | 0.00 | 0.00 | 0.00 | 26 | 1019.5 |
| 20260501180532 | 74 | 158 | 1.7 | 3.5 | 0.00 | 0.00 | 0.00 | 25 | 1019.5 |
| 20260501175524 | 74 | 157 | 0.9 | 3.5 | 0.00 | 0.00 | 0.00 | 26 | 1019.6 |
| 20260501174545 | 75 | 0.0 | 2.6 | 0.00 | 0.00 | 0.00 | 26 | 1019.5 | |
| 20260501173537 | 76 | 308 | 0.9 | 2.6 | 0.00 | 0.00 | 0.00 | 25 | 1019.5 |
| 20260501172528 | 76 | 318 | 2.6 | 4.3 | 0.00 | 0.00 | 0.00 | 24 | 1019.5 |
| 20260501171519 | 76 | 324 | 2.6 | 3.5 | 0.00 | 0.00 | 0.00 | 24 | 1019.4 |
| 20260501170541 | 76 | 319 | 2.6 | 5.2 | 0.00 | 0.00 | 0.00 | 25 | 1019.5 |
| 20260501165532 | 76 | 321 | 3.5 | 5.2 | 0.00 | 0.00 | 0.00 | 24 | 1019.5 |
| 20260501164543 | 76 | 327 | 4.3 | 7.8 | 0.00 | 0.00 | 0.00 | 23 | 1019.5 |
| 20260501163625 | 77 | 317 | 1.7 | 5.2 | 0.00 | 0.00 | 0.00 | 22 | 1019.7 |
| 20260501162536 | 76 | 329 | 0.9 | 4.3 | 0.00 | 0.00 | 0.00 | 24 | 1019.9 |
| 20260501161527 | 77 | 322 | 3.5 | 6.1 | 0.00 | 0.00 | 0.00 | 22 | 1019.8 |
| 20260501160523 | 78 | 310 | 1.7 | 5.2 | 0.00 | 0.00 | 0.00 | 20 | 1019.9 |
| 20260501155536 | 77 | 319 | 1.7 | 5.2 | 0.00 | 0.00 | 0.00 | 21 | 1020.0 |
| 20260501153536 | 76 | 327 | 2.6 | 5.2 | 0.00 | 0.00 | 0.00 | 21 | 1020.3 |
| 20260501152538 | 75 | 327 | 2.6 | 6.1 | 0.00 | 0.00 | 0.00 | 22 | 1020.3 |
| 20260501151540 | 76 | 330 | 4.3 | 7.0 | 0.00 | 0.00 | 0.00 | 20 | 1020.5 |
| 20260501150531 | 76 | 309 | 0.9 | 4.3 | 0.00 | 0.00 | 0.00 | 21 | 1020.5 |